Find Starlink 33944

NORAD ID: 64209 Int'l Des: 2025-117 Owner: SPXS Country: US Constellation: starlink operational
LEOCIRCULAR

Live-Position

3D-Globus wird geladen...

Über Starlink 33944

Beschreibung wird geladen...

Nächste Überflüge

Passes for default location (London). Set your location on the main map for personalized predictions.

Höhenverlauf

Loading altitude history...

Zweizeiliger Elementsatz

1 64209U 25117G 26106.60903341 .00009688 00000-0 33880-3 0 9994
2 64209 53.1588 223.3176 0000681 74.3097 285.7979 15.30199050 50366
Epoch: 16. Apr. 2026 • Age: 21 hours

Aktueller Status

Höhe 479.7 km
Geschwindigkeit 7.63 km/s
Subsatellitenpunkt 45.90°N, 29.12°W
Startdatum 31. Mai 2025
Alter 0.8 years
Typ internet

Technische Details

Klassifizierung Payload
Masse 575.00 kg
Trockenmasse 530.00 kg
Gesamtmasse 575.00 kg
Länge 0.30 m
Durchmesser 4.10 m
Spannweite 29.00 m
Form Box + pan
Hersteller SPXS
Bus-Typ Starlink V2MO
Phasenstatus In Orbit
Besitzer/Staat SPXS/US

Most Searched